Location: Little Eden Observatory
(34.6167°N, 93.7833°W)
Time: 21:12:35

N. Korean satellite - Visible Passes

Search period start: 17 March 2018 00:00
Search period end: 27 March 2018 00:00
Orbit: 460 x 512 km, 97.2° (Epoch: 17 March)

Date Brightness Start Highest point End Pass type
(mag) Time Alt. Az. Time Alt. Az. Time Alt. Az.
17 Mar 10.1 20:12:01 10° SW 20:13:53 13° W 20:15:46 10° WNW visible
18 Mar 9.2 19:46:48 10° SSW 19:49:56 27° W 19:53:08 10° NW visible
21 Mar 10.0 20:10:02 10° SW 20:12:05 14° W 20:14:09 10° WNW visible
25 Mar 9.9 20:08:01 10° SW 20:10:14 15° W 20:12:27 10° WNW visible
